McGrath, AK

10:43 PM AKDT on May 28, 2017 (GMT -0800)
McGrath

Weather History for PAMC - February, 2013

Change the Weather History Date:

Monday, February 18, 2013

  Actual Average Record
Temperature  
Mean Temperature -21 °F 3 °F  
Max Temperature -6 °F 14 °F 41 °F (2006)
Min Temperature -36 °F -8 °F -48 °F (1985)
Degree Days  
Heating Degree Days 86 62  
Month to date heating degree days 1131 1176  
Since 1 July heating degree days 9857 9629  
Cooling Degree Days 0 0  
Month to date cooling degree days 0 0  
Year to date cooling degree days 0 0  
Moisture  
Dew Point -22 °F    
Average Humidity 0    
Maximum Humidity 0    
Minimum Humidity 0    
Precipitation  
Precipitation 0.00 in 0.03 in 0.33 in (1988)
Month to date precipitation 0.57 0.60  
Year to date precipitation 3.09 1.69  
Snow  
Snow 0.00 in 0.50 in 4.70 in (1988)
Month to date snowfall 7.9 8.4  
Since 1 July snowfall 63.7 75.3  
Snow Depth 42.00 in    
Sea Level Pressure  
Sea Level Pressure 30.26 in    
Wind  
Wind Speed 2 mph (NNW)    
Max Wind Speed 9 mph    
Max Gust Speed 12 mph    
Visibility 10 miles    
Events      
T = Trace of Precipitation, MM = Missing Value Source: NWS Daily Summary

Daily Weather History Graph

Daily Weather History Graph

Search for Another Location

Airport or City:

Trip Planner

Search our weather history database for the weather conditions in past years. The results will help you decide how hot, cold, wet, or windy it might be!

Date:

Astronomy

Feb. 18, 2013 Rise Set
Actual Time 9:01 AM AKST 6:12 PM AKST
Civil Twilight 8:13 AM AKST 7:00 PM AKST
Nautical Twilight 7:19 AM AKST 7:54 PM AKST
Astronomical Twilight 6:27 AM AKST 8:47 PM AKST
Moon 10:59 AM AKST (2/18) 4:55 AM AKST (2/18)
Length of Visible Light 10h 47m
Length of Day
9h 11m
First Quarter, 60% of the Moon is Illuminated
Feb 18
First Quarter
Feb 25
Full
Mar 4
Last Quarter
Mar 11
New
Mar 19
First Quarter

Hourly Weather History & Observations

Time (AKST) Temp. Windchill Dew Point Humidity Pressure Visibility Wind Dir Wind Speed Gust Speed Precip Events Conditions
12:53 AM -29.9 °F -44.8 °F - N/A% 30.35 in 10.0 mi NNW 4.6 mph - N/A   Clear
1:53 AM -34.1 °F -46.8 °F - N/A% 30.35 in 10.0 mi West 3.5 mph - N/A   Clear
3:53 AM -33.0 °F - - N/A% 30.33 in 10.0 mi Calm Calm - N/A   Clear
4:53 AM -35.0 °F - - N/A% 30.33 in 10.0 mi Calm Calm - N/A   Clear
6:53 AM -32.1 °F -44.5 °F - N/A% 30.33 in 10.0 mi NW 3.5 mph - N/A   Clear
7:53 AM -34.1 °F - - N/A% 30.33 in 10.0 mi Calm Calm - N/A   Clear
8:53 AM -34.1 °F - - N/A% 30.33 in 10.0 mi Calm Calm - N/A   Clear
9:53 AM -33.0 °F - - N/A% 30.34 in 10.0 mi Calm Calm - N/A   Clear
10:53 AM -27.0 °F - -32.1 °F 77% 30.32 in 10.0 mi Calm Calm - N/A   Clear
11:53 AM -18.9 °F - -25.1 °F 74% 30.30 in 10.0 mi Calm Calm - N/A   Clear
12:53 PM -11.9 °F - -17.0 °F 78% 30.27 in 10.0 mi Calm Calm - N/A   Partly Cloudy
1:53 PM -8.0 °F -16.9 °F -18.0 °F 61% 30.29 in 10.0 mi NNW 3.5 mph - N/A   Partly Cloudy
2:53 PM -7.1 °F - -18.0 °F 59% 30.28 in 10.0 mi Calm Calm - N/A   Partly Cloudy
3:53 PM -7.1 °F -23.9 °F -18.0 °F 59% 30.22 in 10.0 mi NNE 9.2 mph - N/A   Scattered Clouds
4:53 PM -7.1 °F -19.9 °F -18.0 °F 59% 30.18 in 10.0 mi NNE 5.8 mph - N/A   Clear
5:53 PM -8.0 °F -19.2 °F -18.9 °F 59% 30.18 in 10.0 mi North 4.6 mph - N/A   Clear
6:53 PM -11.9 °F - -20.0 °F 67% 30.16 in 10.0 mi Calm Calm - N/A   Clear
7:53 PM -14.1 °F - -20.9 °F 71% 30.17 in 10.0 mi Calm Calm - N/A   Clear
8:53 PM -18.9 °F - -25.1 °F 74% 30.14 in 10.0 mi Calm Calm - N/A   Clear
9:53 PM -22.0 °F - -26.0 °F 82% 30.13 in 10.0 mi Calm Calm - N/A   Clear
10:53 PM -22.0 °F - -27.0 °F 77% 30.13 in 10.0 mi Calm Calm - N/A   Clear
11:53 PM -24.0 °F - -29.0 °F 77% 30.13 in 10.0 mi Calm Calm - N/A   Clear